Torna al catalogo

CXBN

AttivoScienzaVLEO
NORAD 38762·PAYLOAD·🇺🇸 United States

Lanciato Sep 13, 2012 da Vandenberg Space Force Base

Loading…

Prossimi Passaggi (prossime 24 ore)

TLE

AggiornatoSource: Space-Track

Epoca: Sep 14, 2026, 14:15 UTC

1 38762U 12048E   26257.59395004  .00005707  00000-0  23108-3 0  9994
2 38762  64.6590 248.2359 0075015 140.4590 220.2044 15.23171848131898

Traccia CXBN in tempo reale con AllMySat

Download on the App Store